Home   Weather   Amersfoort   Past weeks

Flag for Netherlands Past Weather in Amersfoort, Netherlands — Yesterday and Last 2 Weeks

Now
59 °F

Drizzle. Broken clouds.


Feels Like: 57 °F
Forecast: 48 / 61 °F
Wind: 12 mph from Southwest

Location: Deelen

Current Time: Oct 1, 2016 at 3:49:53 PM

Latest Report: Oct 1, 2016 at 3:25 PM


Visibility: N/A

Pressure: 29.74 "Hg

Humidity: 77%

Dew Point: 52 °F

Location of AmersfoortLocation

Past Weather in Amersfoort — Graph

°F

Amersfoort Temperature Yesterday

Maximum temperature yesterday: 64 °F (at 1:55 PM)
Minimum temperature yesterday: 54 °F (at 8:25 PM)
Average temperature yesterday: 58 °F

High & Low Weather Summary for the Past Weeks

 TemperatureHumidityPressure
High79 °F (Sep 25, 3:25 PM)100% (Sep 17, 7:55 AM)30.30 "Hg (Sep 17, 7:55 AM)
Low39 °F (Sep 27, 5:55 AM)38% (Sep 27, 3:25 PM)29.74 "Hg (Oct 1, 2:25 PM)
Average59 °F75%30.09 "Hg
* Reported Sep 16 2:25 PM — Oct 1 2:25 PM, Amersfoort, Weather by CustomWeather, © 2016

Note: Actual official high and low records may vary slightly from our data, if they occured in-between our weather recording intervals... More about our weather records

Advertising

Amersfoort Weather History for the Previous 24 Hours

Scroll right to see more
 ConditionsComfort  
Time TempWeatherWind HumidityBarometerVisibility
2:25 PM
Sat, Oct 1
63 °FCloudy.9 mph64%29.74 "HgN/A
1:55 PM63 °FMostly cloudy.8 mph64%29.77 "HgN/A
1:25 PM63 °FOvercast.9 mph64%29.77 "HgN/A
12:55 PM63 °FPassing clouds.8 mph64%29.77 "HgN/A
12:25 PM63 °FPartly sunny.8 mph73%29.77 "HgN/A
11:55 AM61 °FPartly sunny.7 mph77%29.77 "HgN/A
11:25 AM59 °FOvercast.7 mph77%29.77 "HgN/A
10:55 AM59 °FPartly sunny.6 mph82%29.77 "HgN/A
10:25 AM59 °FMore clouds than sun.3 mph82%29.77 "HgN/A
9:55 AM55 °FOvercast.3 mph94%29.77 "HgN/A
9:25 AM54 °FMore clouds than sun.3 mph94%29.80 "HgN/A
8:55 AM54 °FFog.3 mph94%29.80 "Hg6 mi
8:25 AM54 °FFog.5 mph94%29.80 "Hg6 mi
7:55 AM54 °FLight rain. Mostly cloudy.3 mph94%29.80 "HgN/A
7:25 AM54 °FOvercast.3 mph94%29.80 "HgN/A
6:55 AM54 °FDrizzle. Mostly cloudy.2 mph94%29.80 "HgN/A
6:25 AM54 °FMostly cloudy.1 mph88%29.80 "HgN/A
5:55 AM54 °FMostly cloudy.1 mph88%29.80 "HgN/A
5:25 AM54 °FOvercast.3 mph88%29.80 "HgN/A
4:55 AM54 °FMostly cloudy.3 mph88%29.83 "HgN/A
4:25 AM54 °FMostly cloudy.3 mph88%29.83 "HgN/A
3:55 AM54 °FMostly cloudy.3 mph88%29.83 "HgN/A
3:25 AM54 °FOvercast.3 mph82%29.83 "HgN/A
2:55 AM54 °FMostly cloudy.3 mph82%29.86 "HgN/A
2:25 AM54 °FOvercast.3 mph82%29.86 "HgN/A
1:55 AM54 °FMostly cloudy.3 mph82%29.89 "HgN/A
1:25 AM54 °FPartly cloudy.3 mph82%29.89 "HgN/A
12:55 AM54 °FMostly cloudy.2 mph82%29.89 "HgN/A
12:25 AM54 °FMostly cloudy.3 mph82%29.89 "HgN/A
11:55 PM
Fri, Sep 30
54 °FMostly cloudy.2 mph82%29.89 "HgN/A
11:25 PM54 °FPassing clouds.5 mph77%29.92 "HgN/A
10:55 PM54 °FOvercast.2 mph77%29.92 "HgN/A
10:25 PM54 °FPassing clouds.3 mph77%29.92 "HgN/A
9:55 PM54 °FOvercast.3 mph77%29.92 "HgN/A
9:25 PM54 °FPassing clouds.3 mph82%29.92 "HgN/A
8:55 PM55 °FOvercast.3 mph77%29.92 "HgN/A
8:25 PM54 °FOvercast.1 mph82%29.92 "HgN/A
7:55 PM55 °FPassing clouds.3 mph72%29.92 "HgN/A
7:25 PM57 °FPassing clouds.3 mph67%29.92 "HgN/A
6:55 PM59 °FCool.6 mph63%29.92 "HgN/A
6:25 PM61 °FPassing clouds.7 mph59%29.92 "HgN/A
5:55 PM63 °FPassing clouds.13 mph52%29.92 "HgN/A
5:25 PM64 °FPassing clouds.12 mph52%29.92 "HgN/A
4:55 PM64 °FMild.14 mph52%29.92 "HgN/A
4:25 PM63 °FPassing clouds.16 mph52%29.92 "HgN/A
3:55 PM64 °FBroken clouds.12 mph56%29.92 "HgN/A
3:25 PM64 °FPartly sunny.14 mph56%29.92 "HgN/A
Weather by CustomWeather, © 2016

See weather overviewHow to use our weather pages